TimeGMT,TemperatureF,Dew PointF,Humidity,Sea Level PressureIn,VisibilityMPH,Wind Direction,Wind SpeedMPH,Gust SpeedMPH,PrecipitationIn,Events,Conditions,WindDirDegrees,DateUTC
12:00 AM,44,38,71,,,SSE,21.9,,,,,150,2014-03-25 00:00:00
1:00 AM,44,39,75,,,SSE,20.7,,,,,150,2014-03-25 01:00:00
2:00 AM,44,39,77,,,SSE,21.9,,,,,150,2014-03-25 02:00:00
3:00 AM,44,40,81,,,SSE,17.3,,,,,160,2014-03-25 03:00:00
4:00 AM,43,41,90,,,SSE,13.8,,,,,150,2014-03-25 04:00:00
5:00 AM,43,41,92,,,SSE,10.4,,,,,150,2014-03-25 05:00:00
6:00 AM,43,42,92,,,SSE,8.1,,,,,150,2014-03-25 06:00:00
6:20 AM,42.8,41.0,93,29.68,3.7,SE,9.2,-,N/A,,Mostly Cloudy,130,2014-03-25 06:20:00
6:50 AM,42.8,42.8,100,29.68,3.7,ESE,6.9,-,N/A,,Mostly Cloudy,110,2014-03-25 06:50:00
7:00 AM,43,42,93,,,ESE,6.9,,,,,120,2014-03-25 07:00:00
7:20 AM,42.8,42.8,100,29.71,3.7,ESE,6.9,-,N/A,,Mostly Cloudy,120,2014-03-25 07:20:00
7:50 AM,44.6,42.8,93,29.71,3.7,ESE,5.8,-,N/A,,Mostly Cloudy,110,2014-03-25 07:50:00
8:00 AM,43,42,96,,,ESE,5.8,,,,,120,2014-03-25 08:00:00
8:20 AM,44.6,42.8,93,29.71,3.7,ESE,5.8,-,N/A,Rain,Light Rain,120,2014-03-25 08:20:00
8:50 AM,44.6,42.8,93,29.74,1.9,East,6.9,-,N/A,,Overcast,90,2014-03-25 08:50:00
9:00 AM,44,43,93,,,East,6.9,,,,,100,2014-03-25 09:00:00
9:20 AM,44.6,42.8,93,29.74,1.6,NE,6.9,-,N/A,,Drizzle,50,2014-03-25 09:20:00
9:50 AM,44.6,42.8,93,29.77,3.1,East,5.8,-,N/A,,Drizzle,80,2014-03-25 09:50:00
10:00 AM,44,43,96,,,East,5.8,,,,,100,2014-03-25 10:00:00
10:20 AM,44.6,44.6,100,29.77,5.0,East,4.6,-,N/A,,Overcast,90,2014-03-25 10:20:00
10:50 AM,44.6,44.6,100,29.77,5.0,ENE,4.6,-,N/A,,Overcast,70,2014-03-25 10:50:00
11:00 AM,45,44,95,,,East,5.8,,,,,90,2014-03-25 11:00:00
11:20 AM,44.6,44.6,100,29.80,5.0,ENE,4.6,-,N/A,Rain,Light Rain,70,2014-03-25 11:20:00
11:50 AM,46.4,44.6,93,29.80,5.0,NE,4.6,-,N/A,Rain,Light Rain,50,2014-03-25 11:50:00
12:00 PM,45,44,92,,,ENE,5.8,,,,,70,2014-03-25 12:00:00
12:20 PM,46.4,44.6,93,29.80,5.6,Variable,3.5,-,N/A,Rain,Light Rain,0,2014-03-25 12:20:00
12:50 PM,46.4,44.6,93,29.83,5.6,ENE,5.8,-,N/A,Rain,Light Rain,60,2014-03-25 12:50:00
1:00 PM,47,45,90,,,ENE,5.8,,,,,70,2014-03-25 13:00:00
1:20 PM,46.4,44.6,93,29.83,5.6,ENE,6.9,-,N/A,Rain,Light Rain,60,2014-03-25 13:20:00
1:50 PM,46.4,44.6,93,29.86,4.3,NNE,5.8,-,N/A,Rain,Light Rain,30,2014-03-25 13:50:00
2:00 PM,46,44,89,,,NE,6.9,,,,,40,2014-03-25 14:00:00
2:20 PM,46.4,44.6,93,29.86,5.6,NNE,5.8,-,N/A,Rain,Light Rain,20,2014-03-25 14:20:00
2:50 PM,46.4,44.6,93,29.86,6.2,North,4.6,-,N/A,Rain,Light Rain,360,2014-03-25 14:50:00
3:00 PM,47,44,86,,,North,5.8,,,,,10,2014-03-25 15:00:00
3:20 PM,46.4,44.6,93,29.89,6.2,NNE,5.8,-,N/A,Rain,Light Rain,20,2014-03-25 15:20:00
3:50 PM,46.4,44.6,93,29.89,6.2,North,5.8,-,N/A,Rain,Light Rain Showers,10,2014-03-25 15:50:00
4:00 PM,46,44,88,,,North,4.6,,,,,10,2014-03-25 16:00:00
4:20 PM,46.4,44.6,93,29.92,3.7,NNW,6.9,-,N/A,Rain,Rain,340,2014-03-25 16:20:00
4:50 PM,46.4,44.6,93,29.92,5.6,NNW,4.6,-,N/A,Rain,Light Rain,340,2014-03-25 16:50:00
5:00 PM,45,44,94,,,NNW,5.8,,,,,340,2014-03-25 17:00:00
5:20 PM,46.4,44.6,93,29.95,5.6,NNW,5.8,-,N/A,,Mostly Cloudy,340,2014-03-25 17:20:00
5:50 PM,46.4,44.6,93,29.98,5.6,North,5.8,-,N/A,,Mostly Cloudy,10,2014-03-25 17:50:00
6:00 PM,46,44,89,,,NNE,5.8,,,,,20,2014-03-25 18:00:00
6:20 PM,46.4,44.6,93,29.98,5.6,NE,4.6,-,N/A,,Mostly Cloudy,40,2014-03-25 18:20:00
6:50 PM,44.6,44.6,100,30.01,5.6,NE,3.5,-,N/A,,Mostly Cloudy,50,2014-03-25 18:50:00
7:00 PM,45,44,92,,,ENE,4.6,,,,,70,2014-03-25 19:00:00
7:20 PM,44.6,42.8,93,30.01,3.7,ENE,4.6,-,N/A,Rain,Light Rain,60,2014-03-25 19:20:00
7:50 PM,44.6,42.8,93,30.04,3.7,ENE,4.6,-,N/A,Rain,Light Rain,70,2014-03-25 19:50:00
8:00 PM,44,42,92,,,East,4.6,,,,,80,2014-03-25 20:00:00
8:20 PM,44.6,42.8,93,30.04,3.7,ENE,4.6,-,N/A,Rain,Light Rain,70,2014-03-25 20:20:00
8:50 PM,44.6,42.8,93,30.06,3.7,ENE,3.5,-,N/A,Rain,Light Rain,70,2014-03-25 20:50:00
9:00 PM,43,42,96,,,East,4.6,,,,,80,2014-03-25 21:00:00
10:00 PM,43,42,94,,,NE,3.5,,,,,50,2014-03-25 22:00:00
11:00 PM,43,41,92,,,North,3.5,,,,,10,2014-03-25 23:00:00